Home > Weather > Basel > Past weeks

Flag for Switzerland Weather for the Past 2 Weeks in Basel, Basel-Stadt, Switzerland

Now
37 °F

Overcast.


Feels Like: 28 °F
Forecast: 34 / 42 °F
Wind: 13 mph from West

Location: Bale-Mulhouse

Current Time: Feb 10, 2016 at 9:03:00 AM

Latest Report: Feb 10, 2016 at 8:00 AM


Visibility: 37 mi

Pressure: 29.61 "Hg

Humidity: 83%

Dew point: 32 °F

Location of BaselLocation

Historic Weather in Basel — Graph

°F

Basel Temperature Yesterday

Maximum temperature yesterday: 56 °F (at 12:00 PM)
Minimum temperature yesterday: 38 °F (at 10:00 PM)
Average temperature yesterday: 48 °F

High & Low Weather Summary for the Past Weeks

 TemperatureHumidityPressure
High57 °F (Feb 6, 4:00 PM)98% (Jan 28, 10:00 PM)30.52 "Hg (Jan 28, 10:00 PM)
Low33 °F (Jan 30, 7:00 AM)50% (Feb 6, 4:00 PM)29.26 "Hg (Feb 9, 4:00 PM)
Average46 °F81%30.16 "Hg
* Reported Jan 26 7:00 AM — Feb 10 7:00 AM, Basel, Weather by CustomWeather, © 2016

Note: Actual official high and low records may vary slightly from our data, if they occured in-between our weather recording intervals... More about our weather records

Advertising

Basel Weather History for the Previous 24 Hours

 ConditionsComfort  
Time TempWeatherWind HumidityBarometerVisibility
7:00 AM
Wed, Feb 10
36 °FLight rain. Overcast.10 mph89%29.59 "Hg9 mi
6:00 AM36 °FOvercast.17 mph85%29.56 "Hg37 mi
5:00 AM36 °FLight rain. Overcast.14 mph89%29.54 "Hg16 mi
4:00 AM36 °FRain. Overcast.16 mph88%29.50 "Hg12 mi
3:00 AM37 °FLight rain. Overcast.16 mph86%29.50 "Hg14 mi
1:00 AM38 °FChilly.17 mph80%29.50 "Hg34 mi
12:00 AM40 °FPassing clouds.24 mph66%29.44 "Hg9 mi
10:00 PM
Tue, Feb 9
38 °FOvercast.22 mph85%29.47 "Hg6 mi
9:00 PM46 °FOvercast.16 mph63%29.38 "Hg12 mi
8:00 PM46 °FOvercast.17 mph67%29.38 "Hg37 mi
7:00 PM46 °FThunderstorms. Overcast.16 mph70%29.35 "Hg37 mi
6:00 PM45 °FLots of rain. Overcast.35 mph86%29.35 "Hg2 mi
5:00 PM54 °FOvercast.20 mph61%29.26 "Hg37 mi
4:00 PM55 °FOvercast.22 mph56%29.26 "Hg37 mi
3:00 PM56 °FOvercast.21 mph57%29.29 "Hg37 mi
12:00 PM56 °FOvercast.22 mph57%29.44 "Hg31 mi
Weather by CustomWeather, © 2016

See weather overviewHow to use our weather pages